Weather History for Boonville, MO

Change the Weather History Date:

Tuesday, March 4, 2014

  Actual Average Record
Temperature  
Mean Temperature 28 °F -  
Max Temperature 44 °F 50 °F 82 °F (1983)
Min Temperature 13 °F 29 °F -5 °F (1978)
Degree Days  
Heating Degree Days 36    
Moisture  
Dew Point 11 °F    
Average Humidity 49    
Maximum Humidity 78    
Minimum Humidity 29    
Precipitation  
Precipitation 0.00 in - - ()
Sea Level Pressure  
Sea Level Pressure 30.15 in    
Wind  
Wind Speed 4 mph (SSE)    
Max Wind Speed 14 mph    
Max Gust Speed 17 mph    
Visibility 10 miles    
Events      
Averages and records for this station are not official NWS values.
T = Trace of Precipitation, MM = Missing Value Source: NWS Daily Summary

Daily Weather History Graph

Daily Weather History Graph

Search for Another Location

Airport:

Trip Planner

Search our weather history database for the weather conditions in past years. The results will help you decide how hot, cold, wet, or windy it might be!

Date:

Astronomy

Mar. 04, 2014 Rise Set
Actual Time 6:38 AM CST 6:06 PM CST
Civil Twilight 6:12 AM CST 6:33 PM CST
Nautical Twilight 5:41 AM CST 7:04 PM CST
Astronomical Twilight 5:10 AM CST 7:35 PM CST
Moon 8:27 AM CST (3/4) 10:12 PM CST (3/4)
Length of Visible Light 12h 21m
Length of Day
11h 27m
Waxing Crescent, 15% of the Moon is Illuminated
Mar 4
Waxing Crescent
Mar 8
First Quarter
Mar 16
Full
Mar 23
Last Quarter
Mar 30
New

Hourly Weather History & Observations

Time (CST) Temp. Windchill Dew Point Humidity Pressure Visibility Wind Dir Wind Speed Gust Speed Precip Events Conditions
12:15 AM 19.2 °F - 4.6 °F 53% 30.30 in 10.0 mi Calm Calm - N/A   Clear
12:35 AM 18.5 °F 11.7 °F 5.2 °F 56% 30.28 in 10.0 mi SSE 4.6 mph - N/A   Clear
12:55 AM 18.1 °F - 5.7 °F 58% 30.30 in 10.0 mi Calm Calm - N/A   Clear
1:15 AM 18.3 °F - 5.5 °F 57% 30.30 in 10.0 mi Calm Calm - N/A   Clear
1:35 AM 18.0 °F - 5.2 °F 57% 30.29 in 10.0 mi Calm Calm - N/A   Clear
1:55 AM 17.8 °F - 4.5 °F 56% 30.28 in 10.0 mi Calm Calm - N/A   Clear
2:15 AM 17.4 °F 10.4 °F 4.8 °F 58% 30.27 in 10.0 mi ESE 4.6 mph - N/A   Clear
2:35 AM 16.3 °F - 6.4 °F 65% 30.26 in 10.0 mi Calm Calm - N/A   Clear
2:55 AM 15.6 °F - 7.7 °F 71% 30.25 in 10.0 mi Calm Calm - N/A   Clear
3:15 AM 15.8 °F 6.1 °F 6.6 °F 67% 30.25 in 10.0 mi ESE 6.9 mph - N/A   Clear
3:35 AM 16.2 °F 9.0 °F 6.3 °F 65% 30.24 in 10.0 mi ESE 4.6 mph - N/A   Clear
3:55 AM 16.2 °F 10.6 °F 5.9 °F 64% 30.24 in 10.0 mi ESE 3.5 mph - N/A   Clear
4:15 AM 15.8 °F - 6.6 °F 67% 30.24 in 10.0 mi Calm Calm - N/A   Clear
4:35 AM 15.8 °F - 6.4 °F 67% 30.25 in 10.0 mi Calm Calm - N/A   Clear
4:55 AM 15.1 °F - 7.5 °F 72% 30.24 in 10.0 mi Calm Calm - N/A   Clear
5:15 AM 14.2 °F 5.3 °F 7.3 °F 74% 30.23 in 10.0 mi SE 5.8 mph - N/A   Clear
5:35 AM 13.3 °F 5.6 °F 7.2 °F 77% 30.23 in 10.0 mi SE 4.6 mph - N/A   Clear
5:55 AM 13.3 °F 7.3 °F 7.3 °F 77% 30.23 in 10.0 mi SSE 3.5 mph - N/A   Clear
6:15 AM 13.6 °F 7.7 °F 6.8 °F 74% 30.23 in 10.0 mi South 3.5 mph - N/A   Clear
6:35 AM 14.0 °F 8.2 °F 7.0 °F 74% 30.23 in 10.0 mi South 3.5 mph - N/A   Clear
6:55 AM 14.0 °F 8.2 °F 8.4 °F 78% 30.22 in 10.0 mi South 3.5 mph - N/A   Clear
7:15 AM 15.1 °F 7.7 °F 8.4 °F 75% 30.22 in 10.0 mi SSE 4.6 mph - N/A   Clear
7:35 AM 17.6 °F 12.3 °F 9.3 °F 70% 30.22 in 10.0 mi SSE 3.5 mph - N/A   Clear
7:55 AM 19.4 °F 10.4 °F 9.3 °F 65% 30.22 in 10.0 mi SSE 6.9 mph - N/A   Clear
8:15 AM 21.4 °F 11.1 °F 10.4 °F 63% 30.21 in 10.0 mi SSE 9.2 mph - N/A   Clear
8:35 AM 23.7 °F 14.0 °F 10.8 °F 58% 30.22 in 10.0 mi South 9.2 mph - N/A   Clear
8:55 AM 25.5 °F 13.8 °F 10.2 °F 52% 30.20 in 10.0 mi South 13.8 mph 17.3 mph N/A   Clear
9:15 AM 26.8 °F 18.5 °F 9.9 °F 49% 30.21 in 10.0 mi South 8.1 mph - N/A   Clear
9:35 AM 28.6 °F 19.3 °F 10.8 °F 47% 30.22 in 10.0 mi SSW 10.4 mph 16.1 mph N/A   Clear
9:55 AM 30.0 °F 20.5 °F 10.9 °F 45% 30.20 in 10.0 mi South 11.5 mph 17.3 mph N/A   Clear
10:15 AM 31.1 °F 22.4 °F 11.5 °F 44% 30.21 in 10.0 mi South 10.4 mph - N/A   Clear
10:35 AM 32.2 °F 26.7 °F 12.9 °F 45% 30.20 in 10.0 mi SSW 5.8 mph - N/A   Clear
10:55 AM 33.3 °F 27.9 °F 13.8 °F 45% 30.18 in 10.0 mi South 5.8 mph - N/A   Clear
11:15 AM 34.3 °F 30.2 °F 13.8 °F 43% 30.18 in 10.0 mi SSW 4.6 mph - N/A   Clear
11:35 AM 35.2 °F 30.3 °F 13.6 °F 41% 30.16 in 10.0 mi SSW 5.8 mph - N/A   Clear
11:55 AM 36.0 °F 32.1 °F 12.6 °F 38% 30.16 in 10.0 mi South 4.6 mph - N/A   Clear
12:15 PM 36.9 °F 33.1 °F 11.8 °F 36% 30.16 in 10.0 mi South 4.6 mph - N/A   Clear
12:35 PM 38.3 °F 31.9 °F 13.6 °F 37% 30.14 in 10.0 mi South 9.2 mph - N/A   Clear
12:55 PM 39.0 °F 34.0 °F 13.6 °F 36% 30.13 in 10.0 mi South 6.9 mph - N/A   Clear
1:15 PM 39.7 °F 34.3 °F 14.0 °F 35% 30.11 in 10.0 mi SSE 8.1 mph - N/A   Clear
1:35 PM 41.0 °F 36.4 °F 14.7 °F 34% 30.10 in 10.0 mi South 6.9 mph - N/A   Clear
1:55 PM 42.3 °F 37.9 °F 15.6 °F 34% 30.09 in 10.0 mi South 6.9 mph - N/A   Clear
2:15 PM 42.6 °F 38.4 °F 15.6 °F 34% 30.09 in 10.0 mi SSE 6.9 mph - N/A   Clear
2:35 PM 43.3 °F 38.1 °F 16.3 °F 34% 30.09 in 10.0 mi SSE 9.2 mph - N/A   Clear
2:55 PM 44.2 °F 39.7 °F 16.9 °F 33% 30.09 in 10.0 mi SE 8.1 mph - N/A   Clear
3:15 PM 44.8 °F 39.9 °F 16.5 °F 32% 30.08 in 10.0 mi South 9.2 mph - N/A   Clear
3:35 PM 44.8 °F 39.4 °F 16.3 °F 32% 30.08 in 10.0 mi SSE 10.4 mph - N/A   Clear
3:55 PM 44.6 °F 39.2 °F 15.4 °F 31% 30.07 in 10.0 mi SSE 10.4 mph - N/A   Clear
4:15 PM 44.6 °F 40.7 °F 14.5 °F 30% 30.07 in 10.0 mi South 6.9 mph - N/A   Clear
4:35 PM 44.4 °F 40.0 °F 14.0 °F 29% 30.06 in 10.0 mi SSE 8.1 mph - N/A   Clear
4:55 PM 43.9 °F 39.3 °F 13.5 °F 29% 30.06 in 10.0 mi South 8.1 mph - N/A   Clear
5:15 PM 43.5 °F 40.1 °F 13.6 °F 30% 30.05 in 10.0 mi SSE 5.8 mph - N/A   Clear
5:35 PM 42.4 °F 37.5 °F 11.8 °F 29% 30.05 in 10.0 mi SE 8.1 mph - N/A   Clear
5:55 PM 40.6 °F 36.0 °F 11.8 °F 31% 30.05 in 10.0 mi SSE 6.9 mph - N/A   Clear
6:15 PM 38.5 °F 34.1 °F 11.7 °F 33% 30.05 in 10.0 mi SE 5.8 mph - N/A   Clear
6:35 PM 37.2 °F 31.9 °F 12.0 °F 36% 30.05 in 10.0 mi ESE 6.9 mph - N/A   Clear
6:55 PM 37.0 °F 31.0 °F 12.2 °F 36% 30.05 in 10.0 mi ESE 8.1 mph - N/A   Clear
7:15 PM 36.3 °F 30.8 °F 12.2 °F 37% 30.06 in 10.0 mi ESE 6.9 mph - N/A   Clear
7:35 PM 35.4 °F 28.4 °F 12.2 °F 38% 30.06 in 10.0 mi SE 9.2 mph - N/A   Clear
7:55 PM 35.6 °F 29.9 °F 11.7 °F 37% 30.05 in 10.0 mi SE 6.9 mph - N/A   Clear
8:15 PM 35.1 °F 29.3 °F 11.7 °F 38% 30.05 in 10.0 mi SE 6.9 mph - N/A   Clear
8:35 PM 34.7 °F 28.8 °F 11.5 °F 38% 30.06 in 10.0 mi ESE 6.9 mph - N/A   Clear
8:55 PM 34.0 °F 28.0 °F 12.0 °F 40% 30.06 in 10.0 mi SE 6.9 mph - N/A   Clear
9:15 PM 33.6 °F 26.8 °F 12.6 °F 42% 30.05 in 10.0 mi SE 8.1 mph - N/A   Clear
9:35 PM 33.1 °F 27.7 °F 12.7 °F 43% 30.05 in 10.0 mi SE 5.8 mph - N/A   Clear
9:55 PM 32.9 °F 28.5 °F 12.0 °F 42% 30.06 in 10.0 mi SSE 4.6 mph - N/A   Clear
10:15 PM 32.0 °F 26.4 °F 12.7 °F 45% 30.06 in 10.0 mi SSE 5.8 mph - N/A   Clear
10:35 PM 32.5 °F 27.1 °F 12.2 °F 43% 30.06 in 10.0 mi SE 5.8 mph - N/A   Clear
10:55 PM 32.5 °F 26.2 °F 12.6 °F 44% 30.07 in 10.0 mi SSE 6.9 mph - N/A   Clear
11:15 PM 32.2 °F 26.7 °F 13.6 °F 46% 30.07 in 10.0 mi SSE 5.8 mph - N/A   Clear
11:35 PM 30.9 °F 26.2 °F 15.6 °F 53% 30.07 in 10.0 mi SSE 4.6 mph - N/A   Clear
11:55 PM 31.6 °F 28.3 °F 14.9 °F 50% 30.08 in 10.0 mi South 3.5 mph - N/A   Clear